Weather in Lubango

Angola     14°54′55″S   13°29′48″E
temp.,
°C
wind,
m/s
gust,
m/s
humid.,
%
clouds,
%
prec.,
mm/h
press.,
hPa
HPBL,
m
26 october, tue
tue2601:00+15nne113815 0.0 101620
04:00+15ssw013529 0.0 101511
07:00+20ese012532 0.0 1016124
10:00+27e342056 0.0 10142568
13:00+29sw141594 0.0 10113264
16:00+27wsw541753 0.0 10102133
19:00+17w33406 0.0 101463
22:00+17wnw223622 0.0 101632
27 october, wed
wed2701:00+16sw113832 0.0 101512
04:00+15ese113933 0.0 101611
07:00+20e123168 0.0 1016160
10:00+27ene342395 0.0 10142448
13:00+23nw442998 0.0 1013989
16:00+24w33266 0.0 10121555
19:00+17w2342100 0.0 101548
22:00+17ne1248100 0.0 1017103
28 october, thu
thu2801:00+17nw1247100 0.0 101656
04:00+18e1144100 0.0 101511
07:00+19ne1242100 0.0 1016130
10:00+25e443496 0.0 10152065
13:00+26wnw0331100 0.0 10122203
16:00+23w233999 0.1 1012231
19:00+19wsw23455 0.1 101453
22:00+18wnw014853 0.0 101611
29 october, fri
fri2901:00+16n11587 0.1 101511
04:00+15sse116565 0.0 101511
07:00+19se1252100 0.0 1016164
10:00+26ese4425100 0.0 10141733
13:00+29ese332198 0.0 10103188
16:00+25w5526100 0.0 1009768
19:00+20wnw463759 0.0 1012272
22:00+17wsw2343100 0.0 101570
30 october, sat
sat3001:00+17sw2243100 0.0 101442
04:00+18sw244278 0.0 101397
07:00+20se4937100 0.0 1015663
10:00+27se452777 0.0 10121622
13:00+29se3523100 0.0 10093159
16:00+23ne033895 0.1 1009578
19:00+18w345258 0.1 101291
22:00+18wnw2254100 0.1 101573